Tracking 30995 objects as of 5-Jul-2025
HD Live streaming from Space Station
objects crossing your sky now

CZ-3A DEB

Track CZ-3A DEB now!
10-day predictions


NORAD ID: 35549
Int'l Code: 2007-003H
Perigee: 335.7 km
Apogee: 15,468.3 km
Inclination: 24.0 °
Period: 282.8 minutes
Semi major axis: 14272 km
RCS: 0.2518 m2 (medium)
Launch date: February 2, 2007
Source: People's Republic of China (PRC)
Launch site: Xichang Space Center, China (XSC)

Note: This is SATELLITE DEBRIS
Your satellite tracking list
STARLINK-2740
Track 1 satellite(s)




NASA's NSSDC Master Catalog

Two Line Element Set (TLE):
1 35549U 07003H   25185.86447084  .00023263  00000-0  65667-2 0  9996
2 35549  24.0159  75.9683 5301127 165.3623 219.4834  5.09131971191549
Source of the keplerian elements: AFSPC